RH
69 68 67 66 63 61 61 59 61 63 64 62 59 60 58 53 55 57 60 60 57 50 41 35 28 24 23 23 24 21 19 15 14 17 15 10 6 4 4 4 5 5 5 5 6 5 5 5 5 5 4 4 4 4 5 5 6 6 7 7 7 7 7 7 7 8 8 8 8 9 9 9 9 9 9 9 8 8 8 8 8 8 8 8 8 8 8 8 9 9 8 8 8 9 9 8 8
69 70 70 71 69 68 68 66 65 66 66 63 59 60 57 54 58 60 59 54 47 41 33 27 22 17 14 12 11 10 9 10 9 9 8 5 4 4 4 5 5 5 5 5 5 5 5 5 5 5 5 5 5 5 6 6 7 6 7 7 7 7 7 8 8 8 8 9 9 9 9 9 10 10 9 9 9 9 9 8 8 9 8 9 9 9 9 9 9 9 9 9 9 9 9 9 9
70 71 71 72 71 71 72 73 70 66 64 61 60 62 61 60 63 62 58 49 40 32 27 23 21 18 13 9 7 8 8 8 8 6 5 4 5 4 5 5 5 5 5 6 5 5 5 5 5 5 5 5 6 6 6 6 7 7 7 7 7 7 8 8 8 9 9 9 9 10 10 10 11 10 10 9 9 9 9 9 9 9 9 9 9 9 9 9 9 9 9 9 9 9 9 9 9
71 72 72 72 70 72 75 75 73 67 63 60 58 59 61 64 64 61 54 42 32 27 25 24 23 20 11 6 5 6 6 5 5 4 4 4 4 4 5 5 5 5 5 6 5 5 5 5 6 6 6 6 6 6 6 7 7 7 7 7 8 8 8 9 9 9 9 9 10 11 12 11 11 11 10 9 9 9 9 9 9 9 9 9 9 9 9 9 9 9 9 9 9 9 10 10 9
71 72 72 71 70 72 76 76 73 70 65 62 59 55 56 57 55 51 44 33 25 21 20 18 17 14 7 4 3 4 4 4 4 4 4 4 4 4 4 5 5 5 5 6 5 6 5 6 6 6 6 6 6 6 7 7 7 7 7 8 8 8 9 9 9 9 9 10 11 12 13 12 12 11 11 10 10 9 9 9 9 9 9 9 9 9 9 9 9 9 9 9 9 9 9 10 10
72 72 72 70 70 71 75 75 72 71 67 65 63 60 58 56 51 45 39 31 23 20 15 10 8 7 4 4 3 4 4 4 4 4 4 4 5 5 5 5 5 5 6 6 6 6 6 6 6 6 6 6 6 6 7 7 7 7 8 8 8 9 9 9 9 10 10 11 12 13 13 13 12 12 12 11 11 10 10 10 10 10 9 9 9 9 9 9 9 9 9 9 9 9 9 9 9
72 73 73 70 69 69 70 69 67 67 65 64 65 63 62 60 55 48 40 31 23 20 14 7 6 7 5 4 4 4 5 4 5 5 5 5 5 5 5 5 5 6 6 6 6 6 6 6 6 7 6 6 7 7 7 7 7 7 8 8 8 9 9 9 10 10 11 13 14 14 14 14 13 13 12 12 11 11 10 10 10 10 9 9 9 9 9 8 8 8 8 9 9 9 9 9 9
63 66 70 68 67 66 64 64 62 63 60 57 60 61 60 57 52 44 35 28 22 19 12 8 11 10 7 6 5 5 5 5 5 5 5 5 5 5 5 5 6 6 6 6 6 7 6 7 7 7 7 7 7 7 7 7 7 8 8 8 9 9 9 10 10 11 13 14 15 15 15 14 14 13 13 12 12 11 10 10 10 9 9 9 9 9 9 8 8 8 8 8 8 8 8 8 9
41 49 59 59 60 61 59 59 56 54 51 49 51 53 52 49 44 38 32 26 21 18 12 10 12 12 10 8 6 5 5 5 5 5 5 5 5 5 5 5 6 6 6 6 6 7 7 7 7 7 7 7 7 7 8 8 8 8 8 9 9 9 10 11 11 12 14 15 16 16 16 15 15 14 13 13 11 11 10 10 9 9 9 9 9 8 8 8 8 8 8 8 8 8 8 8 8
27 35 46 50 50 54 53 53 48 38 35 36 37 39 40 39 37 34 30 24 19 18 14 13 14 14 11 8 6 6 5 5 5 5 5 6 6 6 6 6 6 6 6 7 7 7 7 7 7 8 8 8 8 8 8 8 8 9 9 9 10 10 10 12 12 13 16 17 17 17 16 16 15 15 13 12 11 10 10 10 10 9 9 8 8 8 8 7 7 8 7 8 7 7 7 7 8
24 26 32 41 43 45 46 44 37 24 21 24 23 26 29 27 26 24 22 19 18 18 16 16 17 16 12 8 7 7 7 7 7 7 6 6 6 6 7 7 7 7 7 7 8 8 8 8 8 9 9 9 10 9 10 10 10 10 10 10 10 11 11 13 14 15 18 18 18 18 17 17 16 14 13 11 10 10 10 10 9 9 8 8 8 8 8 8 8 8 8 9 8 9 9 8 8
21 22 23 35 39 37 35 29 22 14 15 16 15 17 19 18 17 16 16 17 17 18 18 19 18 16 12 9 9 9 9 9 9 8 8 7 7 7 8 8 8 8 8 8 9 9 9 9 10 10 11 11 11 11 11 11 11 11 11 11 11 11 13 14 15 17 19 19 19 19 18 17 15 13 12 11 10 10 10 9 9 8 8 8 9 9 9 10 11 12 12 12 12 12 12 12 12
16 17 20 31 31 25 22 18 13 9 10 10 11 12 12 13 14 14 16 17 18 19 19 19 19 16 12 10 10 10 10 10 10 10 10 9 9 9 9 9 9 10 10 10 10 11 12 12 12 12 13 13 13 13 13 13 12 12 12 12 12 12 13 14 16 18 19 20 19 19 18 16 14 12 11 10 10 10 9 8 8 9 10 11 11 12 12 13 14 14 15 15 15 15 15 15 16
12 13 17 26 22 14 13 13 10 8 8 8 8 10 10 12 13 14 15 16 17 18 18 18 18 16 13 12 11 11 12 11 12 11 11 11 11 11 11 12 12 12 12 13 13 14 14 14 15 15 15 15 15 15 14 14 13 13 13 13 13 12 13 14 16 19 20 20 20 19 18 15 13 11 11 11 10 9 9 9 11 13 14 14 14 14 14 15 16 17 18 18 19 18 18 17 17
9 10 12 16 13 8 8 8 7 7 8 8 7 8 9 9 11 11 12 14 15 17 18 18 17 15 13 12 12 12 12 12 12 11 12 12 12 13 13 13 14 15 15 15 16 16 16 16 17 17 17 17 16 16 15 15 14 14 14 13 13 13 14 15 17 20 20 21 20 19 17 14 12 11 11 11 10 9 11 15 18 19 18 17 17 18 18 19 20 21 21 21 21 21 21 20 20
7 7 8 11 10 8 7 6 7 8 7 7 7 8 7 8 10 12 13 14 15 16 17 17 17 15 13 12 13 12 12 12 12 12 12 13 13 14 14 15 16 16 17 17 18 18 18 18 18 18 18 18 17 17 16 16 16 15 15 14 13 14 15 17 20 21 22 21 20 18 15 13 12 12 12 11 10 11 16 21 22 21 20 21 22 23 23 24 23 23 23 22 22 22 22 22 22
6 7 7 9 9 7 7 6 7 8 8 7 7 7 8 9 11 13 14 15 16 17 18 18 16 14 13 13 13 12 12 12 13 13 14 14 15 16 16 17 17 18 18 19 19 20 20 19 19 19 19 18 18 17 17 17 16 16 15 15 15 16 17 20 22 23 23 22 20 17 14 13 13 13 12 11 13 17 22 23 22 22 23 25 26 26 26 26 25 24 23 22 22 22 22 22 22
7 7 7 8 7 6 6 7 7 8 8 7 8 8 9 9 10 12 12 13 15 16 16 16 14 12 12 13 13 12 13 13 13 14 15 16 17 17 18 18 19 19 20 20 21 20 20 20 19 19 19 19 18 18 18 17 17 17 16 16 17 18 20 23 25 26 24 22 19 16 14 14 14 14 14 16 21 24 25 24 23 25 26 27 27 27 26 25 24 23 23 22 22 22 23 23 23
8 8 8 8 8 7 8 8 8 9 8 9 9 9 9 9 10 10 11 12 12 13 14 13 12 12 13 13 13 13 13 13 13 15 16 17 18 19 19 19 20 20 21 21 21 20 20 20 20 20 19 19 19 19 18 18 18 18 18 18 19 21 23 25 27 27 25 22 19 16 15 16 17 19 21 24 26 26 25 25 26 27 28 28 27 26 25 24 24 23 24 24 24 24 24 25 25
9 9 9 8 8 8 9 9 9 9 9 10 10 10 10 10 10 10 11 11 11 12 13 13 13 13 13 13 13 13 13 13 14 15 17 18 19 20 19 20 20 21 21 21 21 21 21 21 21 20 20 21 20 20 20 20 20 20 21 21 22 23 25 27 28 28 25 22 19 18 18 19 21 23 25 26 26 26 26 27 28 29 29 28 26 26 25 25 25 25 26 26 26 27 27 28 28
9 9 9 9 9 9 9 10 10 10 10 10 10 10 10 10 10 10 10 11 12 14 13 13 13 13 13 13 13 13 13 14 15 17 18 19 20 20 20 21 21 22 22 22 23 23 22 22 22 22 22 22 22 22 22 22 22 22 23 23 24 25 27 30 30 28 25 21 20 20 21 22 24 26 27 27 27 27 29 30 31 30 29 28 28 28 27 27 28 28 29 29 30 30 30 31 31
10 9 10 10 10 10 10 10 10 10 10 11 10 10 10 11 11 11 11 12 13 13 13 13 13 13 14 14 14 14 15 15 16 18 19 20 21 21 21 22 22 23 23 24 24 24 23 23 23 23 23 23 23 23 23 23 24 24 24 24 24 26 29 31 31 28 25 23 22 22 23 26 28 28 28 28 29 30 32 32 32 32 31 30 30 29 30 30 31 31 32 33 33 33 33 33 33
10 10 10 10 10 10 10 10 10 10 10 10 10 11 11 11 11 11 11 12 13 13 13 14 14 14 15 15 15 15 16 16 18 18 20 21 22 22 22 23 23 24 25 25 26 25 25 24 24 24 24 24 24 24 24 24 23 23 23 22 23 25 28 30 31 30 27 25 25 26 29 31 31 30 30 30 32 34 34 35 34 33 32 32 32 32 32 33 33 34 34 34 34 34 34 34 33
10 10 10 11 11 10 10 10 10 10 10 10 11 11 11 11 11 11 12 12 13 13 14 15 15 16 16 16 16 17 17 17 17 19 21 22 23 23 23 24 25 26 27 27 28 27 27 26 26 25 25 25 25 25 24 24 23 22 21 21 22 25 29 32 33 32 30 30 30 32 33 33 32 31 31 33 34 36 36 36 35 35 34 34 34 34 34 34 35 34 34 34 34 34 33 33 33
10 11 11 11 11 10 10 10 11 10 10 10 11 11 12 11 11 12 12 12 13 14 15 15 16 17 17 16 17 18 19 19 19 21 22 23 24 24 25 26 27 28 29 30 29 29 28 27 27 27 27 27 26 26 25 24 22 22 21 22 24 28 31 34 35 36 36 36 35 36 35 33 31 31 33 35 36 37 37 37 36 36 36 36 35 35 35 34 34 34 34 34 33 33 33 33 33
11 11 11 11 11 11 11 11 11 11 10 10 10 11 12 11 12 13 13 13 14 15 16 17 18 18 17 17 18 20 21 21 22 23 23 24 25 25 27 28 29 31 31 31 31 30 29 28 28 29 29 29 28 27 26 24 23 22 22 23 27 32 35 37 39 42 42 40 38 37 34 32 32 32 34 36 37 38 37 37 37 37 37 36 36 35 35 34 34 34 33 34 33 34 34 34 33
11 11 12 12 11 11 11 11 10 10 10 10 11 11 12 12 14 15 15 16 16 17 19 19 19 18 19 19 20 21 22 23 23 24 25 25 26 27 28 30 31 32 32 32 32 32 31 30 31 31 31 31 30 29 27 25 24 23 24 27 34 39 42 45 46 46 44 41 38 36 34 32 32 34 36 37 38 39 38 38 38 38 37 37 37 36 36 35 35 35 36 36 36 36 36 36 35
12 11 11 11 11 11 10 10 10 10 11 11 12 13 14 14 15 16 16 18 18 19 20 20 19 20 21 22 22 23 24 24 25 25 27 28 29 30 31 31 32 33 33 34 34 34 33 33 33 34 34 34 32 30 29 27 27 27 30 35 42 47 50 50 48 46 42 39 36 34 33 33 34 35 37 38 39 40 40 40 39 39 39 38 38 37 38 38 38 38 39 40 39 39 39 38 38
11 10 10 11 11 10 10 11 11 13 14 15 15 16 18 17 17 18 17 18 19 20 21 20 21 22 22 24 24 25 26 27 28 29 30 31 32 33 33 33 33 33 34 35 36 36 36 36 37 38 38 37 35 34 33 32 32 34 38 43 49 53 53 50 46 42 39 36 35 34 34 35 36 38 39 40 40 41 41 41 40 40 40 39 39 39 40 40 41 42 42 42 42 42 41 41 40
11 10 11 11 11 12 12 14 15 15 16 17 17 19 23 22 19 19 18 18 20 21 22 23 23 23 24 25 26 27 28 29 31 31 32 34 35 36 36 35 34 35 35 36 38 38 39 39 40 41 41 41 41 40 40 39 39 40 44 49 54 55 52 47 43 40 37 36 36 36 36 37 39 40 41 41 41 41 41 41 41 41 41 41 41 42 43 44 44 44 44 44 44 44 43 43 43
11 12 12 12 14 17 15 15 16 16 17 19 18 21 25 23 20 20 20 20 21 22 23 23 24 25 26 28 29 30 30 32 33 34 35 36 37 37 38 37 36 36 36 37 38 39 40 41 42 43 44 44 45 44 44 44 44 46 50 55 57 55 50 45 41 39 38 38 38 38 39 40 40 41 41 42 42 42 42 42 42 42 43 44 44 45 46 47 47 47 47 46 46 46 46 46 46
11 13 17 15 16 18 15 15 16 17 19 20 20 23 25 24 22 24 24 23 23 23 23 23 25 27 29 31 31 31 32 33 34 35 36 37 38 40 40 38 37 36 37 38 39 40 41 42 43 44 46 46 47 48 48 49 51 54 58 59 58 53 48 44 41 40 40 40 41 41 41 41 42 42 42 42 43 43 44 44 45 46 46 47 48 49 49 50 50 49 50 49 49 49 49 48 48
12 14 18 16 15 17 18 17 17 18 19 19 20 23 26 24 23 24 24 24 24 24 25 25 27 29 31 33 34 35 35 35 36 37 38 39 41 41 40 39 37 37 38 39 40 41 42 43 45 46 48 49 49 51 53 57 60 62 62 60 56 51 46 44 43 43 43 44 44 44 44 44 44 44 45 46 47 48 48 49 50 50 51 52 52 53 54 53 53 52 52 52 51 51 51 50 49
17 15 16 16 15 17 19 19 18 18 20 20 21 23 26 24 22 23 22 24 24 25 26 26 28 29 30 32 33 35 36 37 39 40 42 42 42 41 40 39 38 38 39 40 41 42 44 46 48 49 51 52 53 57 61 64 66 64 62 58 53 49 46 46 46 46 47 48 48 49 49 49 49 50 50 51 52 53 54 54 55 56 56 57 58 57 57 57 56 55 54 54 54 52 51 50 48
19 18 18 19 17 16 19 21 20 20 20 21 22 23 25 24 23 23 23 23 23 24 24 25 26 26 27 29 30 32 34 37 40 42 43 43 42 41 40 40 39 40 41 42 44 45 47 49 51 53 55 58 62 65 67 67 65 61 57 54 52 51 51 53 54 56 57 56 56 56 57 57 57 57 57 57 58 58 59 59 60 61 61 61 61 60 60 59 58 57 56 54 53 50 48 45 42
19 20 19 20 20 19 21 22 21 21 22 23 24 25 26 25 24 23 22 22 22 23 24 25 26 27 28 30 32 35 37 40 42 43 44 44 43 42 42 41 41 43 44 46 48 50 52 54 56 59 63 67 69 69 67 63 60 57 56 56 59 61 63 64 64 65 65 64 63 64 63 63 63 63 63 63 63 63 63 63 63 63 63 62 62 61 60 59 57 54 52 49 46 42 39 36 34
19 20 20 20 21 21 22 22 22 22 25 27 27 26 26 24 24 22 22 23 23 25 26 27 28 29 32 34 37 40 42 45 45 46 45 44 44 44 44 45 46 48 50 52 55 57 59 62 66 70 71 71 70 66 62 60 59 60 62 64 67 69 68 68 68 68 68 67 66 67 67 67 67 66 66 65 65 65 65 64 64 63 62 61 58 56 53 50 47 44 40 37 34 31 28 27 25
19 20 20 21 22 24 24 24 24 25 26 27 27 27 26 24 25 25 26 27 28 29 29 30 32 33 36 38 41 44 47 48 48 47 47 46 46 47 48 50 52 54 57 61 65 69 73 75 76 75 72 69 68 67 67 69 70 72 73 73 73 73 71 71 71 71 70 70 69 69 69 69 69 68 68 67 66 66 65 63 61 58 55 51 47 43 39 36 32 29 27 24 23 21 20 19 19
20 21 22 26 27 26 27 26 25 25 26 27 28 28 28 28 28 29 29 30 31 32 33 35 36 38 39 42 45 48 50 51 50 49 49 49 49 51 54 56 60 65 71 76 81 83 83 80 77 74 74 76 78 81 83 84 84 84 84 83 82 81 79 77 76 76 75 74 73 72 72 71 70 69 68 66 64 62 59 55 51 47 42 37 32 29 25 23 20 19 17 16 16 15 15 15 15
24 24 25 29 28 26 30 29 25 25 26 27 30 33 34 32 30 30 31 32 34 36 38 40 41 42 43 45 48 50 52 52 52 52 52 53 55 58 63 68 75 81 86 88 88 85 82 79 81 84 88 91 92 92 91 90 89 88 88 87 85 84 82 80 79 78 76 74 73 71 70 67 65 63 61 59 55 52 49 44 39 34 30 26 23 20 18 16 15 14 14 13 13 13 13 13 13
25 25 25 27 27 27 30 29 25 26 27 28 31 35 39 36 30 32 35 36 38 41 43 44 44 46 47 49 51 52 54 54 55 55 57 60 64 69 77 84 88 91 90 88 85 82 83 87 92 96 97 97 96 94 93 92 90 88 86 85 83 81 80 78 77 75 73 71 69 67 64 61 57 55 52 49 45 42 39 34 31 27 24 22 20 18 17 16 15 14 14 13 13 13 12 12 12
25 25 26 27 27 26 26 25 25 30 32 33 32 33 38 40 35 35 39 40 42 45 45 47 47 49 50 51 53 55 56 58 59 62 66 71 77 83 89 92 91 89 86 84 83 86 91 96 99 100 99 97 95 93 91 89 86 85 83 81 79 77 75 73 72 70 67 65 62 60 57 53 49 46 43 40 37 34 32 29 26 25 23 22 21 20 19 18 17 17 16 15 15 14 13 12 12
28 28 27 27 26 25 25 25 28 34 35 34 34 34 37 43 41 40 42 43 44 46 47 50 52 52 53 54 55 58 60 63 67 72 78 84 89 91 93 93 89 85 83 83 87 93 97 99 100 99 97 94 92 89 87 84 82 80 77 75 73 71 69 66 64 61 59 56 53 50 47 44 41 38 36 34 32 29 27 26 26 25 26 25 24 24 23 22 21 20 19 18 17 16 15 14 13
30 29 26 25 24 24 26 27 30 33 34 35 39 40 39 42 45 44 46 47 47 50 53 56 58 58 58 58 60 63 66 71 76 82 88 91 93 94 95 93 89 86 87 90 95 99 100 99 98 96 93 90 87 84 82 79 76 74 71 69 66 64 61 59 56 53 50 48 45 43 40 38 35 33 32 30 29 28 27 27 27 27 28 28 28 28 27 26 25 23 22 20 18 17 15 14 13
29 27 25 26 25 25 27 28 29 30 33 38 41 41 37 39 46 48 50 54 54 56 60 62 65 65 66 66 68 72 77 82 87 90 93 94 96 98 98 95 93 94 96 98 100 100 99 96 94 91 88 84 81 78 75 72 69 67 63 61 59 56 53 51 48 46 44 41 39 38 36 34 33 31 30 29 28 28 28 28 28 28 29 31 31 31 30 29 27 25 22 19 17 15 14 13 12
28 27 27 28 25 26 27 27 29 31 34 40 42 42 38 37 50 57 59 62 61 61 65 68 71 72 74 76 79 84 89 92 94 96 97 98 100 101 100 99 99 99 100 100 100 99 95 92 88 84 81 77 73 70 67 64 61 57 54 52 50 47 45 43 42 40 38 37 35 34 33 32 31 30 29 29 28 28 28 29 30 31 32 33 34 34 32 30 27 25 21 18 15 13 12 11 11
29 30 29 28 26 28 29 28 30 30 34 42 42 44 42 40 52 62 62 63 64 65 68 71 75 78 80 83 86 89 91 93 95 96 98 100 101 101 100 100 100 100 100 99 97 93 88 84 80 76 72 67 64 61 58 55 52 49 46 44 43 41 40 39 38 37 36 35 34 33 33 32 30 29 27 26 25 25 25 25 26 28 31 32 33 33 31 28 25 22 18 16 14 12 12 11 11
33 31 28 28 29 30 29 29 31 29 33 40 40 42 44 42 50 58 58 60 63 67 70 72 76 81 84 86 87 88 90 92 94 96 99 100 101 101 100 100 100 99 97 94 90 86 80 76 71 66 61 57 54 52 49 47 45 44 42 41 41 41 41 40 39 38 37 36 35 33 32 30 27 24 22 21 20 18 18 18 18 20 22 24 26 26 25 24 21 18 16 14 13 13 13 13 12
33 29 30 31 31 34 33 31 32 31 32 38 41 43 42 42 49 53 55 59 62 66 70 72 76 81 85 86 87 90 94 96 98 99 100 100 100 100 100 100 100 97 93 88 83 78 72 66 60 56 52 49 47 46 44 43 43 43 44 45 45 45 44 43 41 39 38 35 33 31 28 25 22 19 18 16 15 14 13 13 13 14 15 15 17 18 18 17 16 16 15 14 14 14 15 15 14
34 32 36 37 36 41 42 37 36 37 37 40 43 42 41 45 50 52 56 61 62 66 70 73 78 82 85 88 90 94 98 99 100 100 100 100 100 100 100 100 98 93 87 82 76 69 62 55 50 48 46 45 44 44 44 45 46 47 48 48 47 45 43 42 39 36 34 31 28 26 24 22 19 18 17 16 16 15 14 14 14 14 14 14 14 14 15 15 14 15 15 15 15 15 15 16 16
37 33 36 43 44 46 45 41 42 46 45 44 43 41 44 51 55 58 62 64 65 68 73 77 82 86 90 93 96 98 100 100 100 100 100 100 100 100 100 97 92 86 81 74 65 55 48 44 44 45 46 47 48 49 50 52 52 51 49 47 44 42 39 36 33 31 28 26 24 23 22 21 20 19 19 19 18 18 18 18 18 18 17 17 17 17 17 17 17 16 16 17 17 17 17 17 17
36 33 37 48 50 49 49 45 47 53 52 47 44 45 50 54 58 65 68 68 70 74 78 83 87 91 95 98 100 100 100 100 100 100 100 100 100 100 96 89 84 80 73 61 49 43 42 44 47 51 53 54 54 54 55 55 53 51 48 45 42 39 36 32 29 27 25 24 23 22 22 22 21 21 21 21 21 21 21 21 21 21 21 21 21 21 21 20 20 20 19 19 19 19 19 19 19
36 41 45 48 50 52 52 47 49 52 47 41 43 48 51 53 62 74 75 74 78 80 84 87 88 91 95 98 100 100 100 100 100 100 100 100 100 94 87 83 81 75 62 48 41 41 44 48 50 52 53 53 53 55 56 54 51 48 44 40 38 34 31 28 25 24 23 22 21 21 21 21 21 21 21 22 22 22 22 22 22 22 23 23 23 23 22 22 22 22 22 22 21 21 21 21 21
39 48 44 39 45 49 48 48 47 46 40 37 45 51 50 51 65 79 80 80 85 87 90 92 90 91 92 94 99 100 100 101 100 100 100 98 95 88 83 83 78 65 50 41 40 42 46 49 51 53 53 55 57 56 52 47 42 39 34 31 28 25 23 22 21 21 21 22 22 23 23 23 23 24 24 24 23 23 24 23 23 23 23 23 23 23 23 23 23 22 22 22 22 22 21 21 21
35 42 32 29 42 48 50 51 48 48 46 42 47 49 51 63 76 84 85 86 91 94 95 96 95 95 95 97 99 99 98 98 99 101 100 94 88 83 82 78 67 54 46 43 46 49 53 57 59 61 61 57 52 46 39 34 30 27 24 22 22 22 22 23 24 25 25 25 25 25 25 24 24 24 23 23 23 23 23 23 23 23 23 23 22 22 22 22 22 22 22 21 21 20 20 20 20
27 28 20 23 40 48 52 55 51 51 47 46 51 46 54 74 80 81 85 87 92 97 99 100 99 100 100 99 99 97 97 99 98 95 90 84 81 79 75 66 54 50 50 52 57 60 63 65 64 61 54 45 37 31 27 23 22 21 22 24 25 26 26 26 25 24 22 21 20 19 18 17 17 17 17 17 17 17 17 18 18 18 19 19 19 19 19 19 19 19 19 19 18 18 18 18 17
25 24 20 27 46 51 52 53 56 56 47 50 55 47 56 75 73 76 85 86 91 97 97 98 97 97 99 100 101 99 96 92 86 81 81 79 75 69 60 53 51 54 58 61 64 66 66 63 55 46 38 31 26 23 21 21 23 26 27 27 26 24 21 19 17 15 14 13 13 13 13 13 13 12 13 13 12 13 13 13 13 13 13 14 14 15 15 16 16 16 16 16 15 15 15 14 14
27 28 31 42 56 57 51 46 54 62 55 53 57 51 55 63 63 74 83 81 81 79 78 84 88 94 100 100 95 89 83 80 78 77 76 69 59 53 50 54 60 64 66 68 67 64 58 48 39 32 26 23 21 21 24 26 28 27 24 21 18 16 14 13 12 12 13 13 13 14 14 14 15 15 15 15 15 15 14 14 14 13 13 13 12 12 12 12 13 13 13 13 13 13 13 12 12
Wind_Speed
13 13 13 13 15 14 15 15 12 14 17 16 17 17 18 19 17 15 13 12 13 13 13 14 14 15 16 16 17 17 15 15 13 10 10 10 9 9 9 8 8 9 9 10 10 10 11 12 12 13 13 14 15 16 17 17 18 19 19 20 20 21 21 22 22 23 23 24 24 24 24 23 23 22 22 21 21 20 20 20 20 20 20 20 21 21 21 21 22 23 24 24 24 23 24 24 24
13 13 14 14 14 14 14 15 12 12 15 17 18 20 21 21 18 14 12 12 13 14 14 15 15 16 16 16 16 16 15 13 12 12 12 12 11 11 10 10 10 10 11 11 11 12 12 13 13 14 15 16 16 17 18 18 19 20 21 21 22 22 23 23 24 24 25 25 25 24 24 23 23 23 22 22 21 20 20 20 20 20 20 20 20 20 21 21 21 22 23 23 23 22 23 23 24
13 13 14 13 14 14 14 16 15 13 16 18 16 19 23 20 17 15 14 13 14 14 15 15 16 16 15 15 13 13 12 11 11 11 11 11 11 11 11 11 11 12 12 13 13 14 14 15 15 16 16 17 18 18 19 19 20 21 22 23 23 24 24 24 25 25 25 25 25 24 24 23 23 23 23 23 21 20 20 20 20 20 20 20 20 21 21 21 22 22 23 23 22 22 22 22 23
13 13 13 13 13 13 14 15 16 15 16 17 12 14 17 15 15 14 14 13 13 14 14 15 16 16 15 14 12 12 11 10 11 11 12 11 12 12 12 12 12 13 14 14 15 15 16 16 17 17 18 18 19 19 20 21 22 23 23 24 24 25 25 26 26 26 26 25 25 24 23 23 23 23 23 23 22 21 21 21 21 21 21 21 21 21 21 21 22 23 23 23 23 22 21 21 22
13 13 13 13 12 13 15 16 18 18 17 14 10 11 13 11 12 12 13 13 12 13 14 15 17 16 15 14 13 12 11 11 12 12 13 13 13 13 14 14 14 14 15 15 16 17 17 18 18 19 19 20 20 21 22 23 23 24 24 25 25 26 26 27 27 26 26 25 24 24 23 23 23 23 23 23 23 22 22 21 21 21 21 21 21 21 21 22 22 23 23 24 24 23 22 22 22
13 13 13 13 13 14 16 17 18 20 20 19 14 15 16 14 13 13 13 14 13 14 14 15 15 14 15 13 13 13 12 12 13 13 13 14 14 14 15 15 16 16 16 16 17 18 18 19 20 20 21 21 22 23 23 24 25 25 26 26 27 27 27 27 27 26 26 25 24 24 24 24 23 23 23 22 22 23 22 21 22 22 22 22 22 22 22 22 22 23 24 24 24 24 23 22 22
14 13 13 13 14 16 15 17 17 17 21 24 21 20 21 19 18 17 16 15 15 15 15 13 12 13 14 13 14 14 13 13 14 14 14 15 15 15 16 17 17 17 17 18 18 19 20 20 21 21 22 23 23 24 24 25 26 26 27 27 27 28 28 27 27 26 26 25 25 24 24 24 24 23 23 23 23 23 23 22 22 22 22 22 22 22 22 23 23 23 24 24 25 25 24 23 22
15 14 16 14 15 19 18 19 21 21 24 24 21 21 21 20 19 18 16 16 16 16 15 14 13 15 15 14 15 15 15 15 16 16 16 16 17 17 18 18 18 19 19 20 20 20 21 21 22 22 23 24 24 25 26 26 26 27 27 27 28 28 27 27 27 26 26 26 25 25 25 24 24 24 23 23 23 23 23 23 22 22 22 22 22 23 22 23 23 23 24 24 25 25 25 24 23
16 15 17 16 15 19 20 22 25 26 26 23 21 20 20 20 19 18 17 17 17 16 16 16 16 17 17 16 17 17 17 17 18 18 18 18 18 19 20 20 20 21 21 21 21 21 22 22 23 23 24 24 25 26 26 27 27 27 27 28 28 28 27 27 27 27 26 26 26 26 25 25 25 24 24 24 23 23 23 23 23 22 22 22 22 23 23 23 23 23 24 24 24 25 25 25 24
14 15 17 17 16 17 19 21 25 25 23 21 20 19 19 19 19 19 19 18 17 17 18 18 18 19 19 18 18 18 18 18 19 19 19 19 20 20 21 21 21 21 21 21 21 22 22 23 23 24 24 25 25 26 26 27 27 27 28 28 28 28 28 27 27 27 26 26 26 26 26 26 25 25 25 25 24 24 23 23 23 22 22 22 22 22 23 23 23 23 23 23 24 24 24 24 24
11 14 15 16 15 16 17 18 21 22 20 18 17 17 18 18 18 19 19 19 18 19 19 19 20 20 19 19 18 18 18 19 19 20 20 20 20 20 21 21 21 21 21 21 22 22 23 24 24 24 24 25 25 26 26 27 27 28 28 28 28 28 28 27 27 26 26 26 26 26 26 26 26 26 25 25 25 24 24 23 22 22 22 22 22 22 22 22 22 22 22 22 23 23 24 24 24
10 12 13 14 15 17 18 19 20 19 17 17 17 16 17 18 18 18 18 19 19 20 20 21 21 21 20 20 19 19 19 20 20 20 20 20 20 20 20 21 21 21 21 22 22 23 23 24 24 24 25 25 26 26 27 27 28 28 28 28 28 28 28 27 27 26 26 26 26 26 26 26 26 26 26 25 25 24 24 23 22 22 22 22 22 22 22 21 21 20 20 20 21 22 22 23 23
9 11 12 14 17 19 19 20 20 17 16 16 15 16 16 17 17 18 18 19 19 20 21 21 21 20 20 21 21 20 20 20 20 19 19 18 18 19 19 20 20 21 21 22 22 23 24 24 25 25 25 26 26 27 27 28 28 28 28 28 28 28 28 27 27 27 27 27 27 27 26 26 26 26 25 25 24 24 23 23 22 22 22 21 21 21 20 19 19 18 18 18 19 20 20 21 22
9 10 11 14 17 19 18 19 19 18 17 15 13 14 14 15 16 16 18 18 19 19 20 20 19 20 21 21 21 20 19 19 19 19 18 18 19 19 19 20 20 21 22 22 23 24 25 25 26 26 26 27 27 28 28 28 28 29 29 29 29 28 28 28 28 28 28 27 27 27 26 26 26 25 25 24 23 22 22 22 22 21 21 20 20 19 19 18 18 17 17 17 18 19 19 20 21
9 11 12 15 18 19 18 18 18 18 17 14 13 13 13 14 15 16 17 18 19 19 19 19 18 19 21 21 21 20 19 20 20 21 20 20 20 20 21 21 21 22 23 23 24 25 25 26 26 26 27 27 27 28 28 29 29 29 30 30 30 29 29 29 28 28 28 28 27 27 27 26 26 25 25 24 23 22 21 21 21 20 19 18 18 18 18 18 18 18 18 18 18 19 20 21 21
11 12 14 16 18 19 18 17 17 17 17 15 14 15 15 15 15 15 16 17 18 18 19 19 19 20 21 21 21 21 21 21 21 21 21 21 22 22 22 22 23 23 23 23 24 24 25 25 26 26 26 27 28 28 29 29 30 30 30 30 30 30 29 29 28 28 28 28 27 27 27 26 26 25 24 24 23 22 21 20 19 18 18 17 17 17 18 18 18 18 19 19 19 20 21 22 22
12 13 15 18 19 19 18 18 16 16 18 17 17 17 17 16 16 16 16 17 18 18 19 20 20 21 21 21 21 21 21 22 21 21 21 21 22 22 22 23 23 23 23 23 23 24 24 25 26 26 27 28 28 29 30 30 31 31 30 30 30 29 28 28 28 27 27 27 27 27 26 26 25 25 24 23 22 22 21 20 19 19 18 18 18 18 18 18 19 19 20 20 21 22 23 24 24
12 14 16 18 19 19 17 17 17 17 18 18 18 18 18 18 17 17 17 17 17 18 19 19 20 20 21 21 21 21 22 22 22 22 21 21 21 22 22 22 22 23 23 23 23 24 25 26 27 27 28 28 29 30 31 31 31 31 30 30 29 28 27 27 27 27 27 26 26 26 25 25 24 24 23 22 22 21 21 20 20 19 20 19 19 19 19 20 20 21 22 22 23 23 24 25 26
13 15 17 18 18 17 16 16 17 18 18 18 18 18 18 18 18 18 18 18 18 18 18 18 19 20 21 21 21 21 21 22 22 22 21 21 21 22 22 22 22 23 23 24 24 26 27 27 28 28 29 29 30 31 31 31 31 30 30 29 28 27 26 26 26 26 26 26 25 24 24 23 22 22 22 22 22 21 21 21 21 21 21 20 20 21 22 22 23 23 24 24 25 25 26 26 27
14 15 17 18 17 17 17 17 17 18 18 19 19 19 18 18 18 18 18 19 18 17 17 18 18 20 20 20 20 21 21 22 22 21 21 21 21 22 22 22 23 24 24 24 25 26 27 28 29 29 29 30 30 31 31 31 30 29 29 27 26 26 25 25 25 25 25 24 24 23 23 23 23 23 23 23 23 22 22 22 22 22 22 22 22 23 24 24 25 25 26 26 26 27 27 27 27
14 15 17 17 17 17 18 17 18 18 19 20 20 20 19 19 19 19 19 19 18 17 17 17 18 19 20 20 20 21 22 23 22 21 20 20 21 21 22 22 23 24 24 24 25 26 27 28 29 30 30 30 31 31 31 30 29 28 27 26 25 24 24 24 24 24 24 24 23 24 24 24 24 24 24 24 23 23 23 23 23 23 23 24 24 25 25 26 26 27 27 27 28 28 28 28 28
15 16 16 17 17 18 18 18 18 19 20 20 20 20 19 20 20 20 20 18 18 19 18 17 18 20 20 20 21 22 23 23 21 20 20 20 20 21 21 22 23 24 24 24 25 26 28 29 29 30 31 31 31 31 30 29 28 27 26 25 24 24 24 24 24 24 24 25 25 25 25 25 24 24 24 24 23 23 23 24 24 25 25 25 26 26 27 27 27 27 27 27 27 28 28 28 29
16 17 17 17 18 19 19 19 19 20 21 21 20 20 20 21 21 21 20 19 21 21 18 18 20 20 21 22 22 23 23 22 22 21 21 20 20 20 21 22 23 24 24 25 26 27 28 29 30 31 31 31 30 30 29 28 27 27 26 25 25 25 25 25 25 25 26 27 26 26 25 24 24 24 24 24 24 24 24 25 25 26 26 27 27 27 27 27 27 27 27 27 27 28 28 29 29
16 18 17 17 18 19 19 19 20 20 21 22 21 21 21 22 22 21 20 21 22 21 20 21 22 22 23 24 24 23 23 23 22 21 20 19 19 20 21 22 23 24 25 26 27 28 29 29 30 31 31 31 30 29 29 28 28 27 27 26 26 26 26 26 26 27 27 27 27 26 26 25 25 25 25 25 25 26 26 26 27 27 27 28 27 27 28 28 28 28 29 29 30 30 31 31 32
16 17 17 17 18 18 19 19 20 21 22 22 22 22 22 23 23 22 21 22 23 22 21 22 23 24 25 25 24 23 22 22 21 19 19 19 19 20 21 21 22 24 25 26 27 28 29 30 31 32 32 31 30 30 29 29 29 28 28 27 27 27 27 28 28 28 28 28 28 27 27 27 26 26 26 26 27 27 28 28 28 28 29 29 29 29 30 30 31 32 32 33 34 34 34 35 35
16 16 17 17 18 19 19 19 20 22 22 22 23 23 24 24 23 23 22 22 22 22 23 23 24 25 25 23 22 21 21 21 20 19 19 20 20 20 21 22 23 24 26 27 29 30 31 32 32 33 32 32 31 30 30 30 30 30 29 29 29 28 29 29 29 29 29 29 29 28 28 28 27 27 27 28 29 29 30 30 30 31 31 32 32 32 33 34 34 35 35 36 37 37 37 37 37
16 17 17 18 18 19 19 20 21 22 23 23 23 23 24 24 23 23 22 22 23 24 24 24 24 23 22 21 20 21 21 21 21 21 20 20 20 21 22 23 24 25 27 28 30 32 33 34 34 33 33 32 31 31 31 31 31 31 30 30 30 29 30 30 30 30 30 30 30 30 29 29 29 29 29 30 31 31 32 32 33 33 34 34 34 35 35 36 36 37 37 38 38 38 38 38 38
16 17 18 19 20 21 21 22 22 22 22 22 22 23 23 22 20 19 18 19 22 23 23 23 22 21 21 22 22 22 23 23 23 22 21 21 21 22 23 24 26 26 28 29 32 33 34 34 34 33 32 31 31 30 30 31 31 31 31 30 30 30 30 31 31 31 31 31 31 30 30 30 30 30 31 32 32 33 33 34 35 35 36 36 36 37 37 38 38 38 38 38 39 39 39 39 39
18 19 20 21 21 23 23 22 21 20 19 20 21 20 18 17 15 15 16 18 20 21 21 21 20 21 22 22 22 23 23 24 24 23 23 22 23 23 25 26 28 28 29 31 32 33 34 34 33 32 31 30 30 30 30 30 31 31 31 31 30 31 31 31 31 31 31 31 30 30 30 31 31 32 32 33 34 35 35 36 36 37 38 38 38 39 39 39 39 40 40 40 40 41 41 41 41
19 20 21 22 21 21 20 18 17 18 19 19 20 16 13 15 16 15 17 18 19 19 19 19 20 22 23 23 23 23 24 24 24 24 24 24 24 25 27 28 29 30 31 31 32 32 33 33 32 32 31 30 30 30 30 31 31 31 31 31 31 31 31 31 31 30 30 30 30 31 31 32 32 33 33 34 35 36 36 37 38 39 39 40 40 40 41 41 41 41 42 42 43 43 44 44 44
20 21 21 21 16 14 17 16 17 18 18 18 19 16 12 14 14 13 15 16 16 18 20 23 25 25 24 23 24 24 25 26 25 25 25 26 26 27 29 30 30 31 31 31 31 32 32 32 32 31 30 30 30 30 30 31 31 31 31 30 30 30 30 30 30 30 30 30 31 31 31 32 33 34 34 35 36 37 37 38 39 40 41 41 42 42 42 43 43 43 44 45 46 46 47 47 47
21 18 16 17 15 15 19 19 18 18 18 18 18 13 9 13 17 18 18 18 20 23 26 28 28 27 25 24 25 26 27 27 27 27 28 28 29 30 31 31 31 31 31 30 30 31 31 31 30 30 30 29 29 29 29 29 29 30 29 29 30 30 30 30 30 30 30 30 31 31 32 33 33 34 35 36 37 38 39 40 41 42 42 43 44 44 45 45 46 46 47 48 49 49 50 50 51
18 15 14 19 20 20 21 19 19 19 19 20 19 15 15 20 24 23 22 22 23 25 26 26 26 26 26 27 27 28 29 31 31 31 31 32 32 31 31 31 31 30 29 29 29 29 30 29 29 28 28 28 28 27 27 28 28 28 29 29 30 30 30 30 30 31 31 31 32 32 33 34 35 35 36 37 38 39 40 42 43 44 44 45 46 47 47 48 49 50 51 52 52 53 54 54 54
14 17 19 21 22 21 20 20 21 20 19 20 19 18 19 22 23 22 21 21 21 23 24 26 27 28 28 29 29 30 31 32 32 32 32 32 31 30 30 29 29 28 27 27 27 27 27 27 27 26 26 26 26 26 27 27 27 28 29 30 30 30 31 31 31 31 32 33 33 34 35 36 37 38 39 40 41 42 43 44 45 46 47 48 49 50 51 52 53 54 54 55 56 57 57 57 57
16 18 20 21 23 23 21 20 20 19 19 19 18 17 18 18 19 20 21 22 24 25 27 28 29 29 28 27 26 26 27 28 28 28 28 28 27 27 27 26 26 25 25 25 25 25 25 25 25 25 25 25 25 25 26 27 28 28 29 29 30 30 31 31 32 33 34 35 36 36 37 38 40 41 42 43 44 46 47 48 49 49 50 51 52 53 54 55 56 57 58 58 58 59 60 60 59
18 18 19 20 22 22 19 19 20 20 18 15 14 15 17 19 20 22 25 26 28 28 28 27 25 24 22 21 20 20 20 21 22 23 23 23 23 23 23 23 23 22 22 22 22 22 23 23 23 23 23 24 24 25 26 27 28 28 28 29 29 31 32 33 34 35 36 38 39 40 41 42 43 44 45 46 48 49 50 51 52 53 54 55 55 56 57 58 58 59 60 60 60 60 60 60 60
17 18 19 19 20 20 18 18 18 16 15 14 14 18 22 24 24 25 26 27 27 25 23 21 19 18 17 17 16 16 16 16 17 18 20 20 20 20 20 20 20 20 20 20 20 20 21 21 21 22 22 23 24 25 26 27 28 28 29 30 32 34 35 36 38 39 40 41 42 43 44 46 47 48 49 50 51 52 53 54 55 56 56 57 58 58 59 59 60 60 61 61 61 60 60 59 60
16 17 18 17 17 18 17 15 14 14 16 17 19 23 25 26 25 25 24 22 20 19 18 17 16 16 16 15 14 14 13 14 15 16 17 18 18 18 18 18 18 17 17 17 18 18 19 19 20 21 22 24 25 26 27 28 30 31 33 34 36 37 39 40 41 42 44 45 46 47 48 49 50 52 53 54 54 55 56 56 57 58 58 58 59 59 59 59 59 59 59 59 59 59 59 58 58
14 14 15 14 14 16 14 14 16 17 19 21 21 22 24 25 23 21 18 16 15 16 17 17 16 16 15 14 13 12 12 12 13 14 16 16 17 17 16 16 15 15 15 16 16 17 19 20 21 22 23 25 26 28 29 31 33 34 35 37 38 40 41 43 44 45 47 48 49 50 51 52 53 54 54 55 56 56 57 57 58 58 58 58 58 58 58 58 58 57 57 58 58 58 58 57 57
12 12 12 12 14 15 14 18 20 20 21 21 17 18 22 19 15 13 13 14 16 16 16 15 15 14 13 12 12 12 12 12 13 14 14 15 15 15 14 13 13 14 15 16 18 19 20 21 22 24 25 27 29 30 32 34 36 37 39 40 41 43 44 45 46 47 48 49 50 50 51 52 53 54 55 55 56 56 57 57 57 57 57 56 56 56 56 56 56 55 55 56 56 56 56 56 55
11 12 12 12 14 16 17 21 23 23 21 17 15 14 12 8 9 12 14 15 15 15 14 14 14 13 12 11 11 11 12 12 13 13 14 13 13 13 12 13 14 16 18 19 20 21 22 23 24 26 28 30 32 34 36 38 40 41 42 44 45 46 47 48 48 49 50 51 52 52 53 53 54 54 55 55 55 56 56 56 55 55 55 55 55 55 55 54 54 53 53 53 53 54 54 54 52
12 12 13 14 16 18 21 23 25 19 12 12 16 9 2 4 11 15 14 14 14 14 14 14 13 13 12 11 11 12 12 12 13 12 12 12 12 13 15 17 18 20 21 21 22 23 24 26 28 30 32 34 36 38 40 42 44 45 47 48 49 50 51 52 53 54 54 55 56 56 57 57 56 56 56 55 55 55 55 55 54 54 54 54 54 54 54 53 52 51 51 51 50 51 51 51 50
12 12 15 17 20 23 23 23 20 13 8 13 15 5 2 7 12 12 12 13 14 13 14 14 13 12 12 12 12 12 12 12 12 12 12 13 15 17 19 21 21 22 22 23 24 26 28 30 32 34 37 39 41 43 44 46 48 49 51 52 53 54 55 55 56 57 58 58 58 58 58 57 57 56 55 55 54 54 53 53 53 52 52 52 52 52 52 52 51 50 50 49 49 49 49 50 50
12 15 19 21 22 22 20 18 16 13 11 11 9 5 4 5 7 10 10 11 12 13 14 14 12 12 12 12 12 12 12 12 12 13 15 17 20 22 23 23 23 24 24 26 27 30 32 34 37 39 41 43 45 47 49 50 52 54 55 56 57 58 58 59 59 59 59 59 59 58 58 57 56 55 54 53 53 52 52 51 51 51 51 51 51 51 51 51 51 50 49 49 49 49 49 50 50
16 19 21 21 20 18 17 14 13 12 6 4 9 10 5 2 5 10 10 10 13 14 15 14 13 13 12 12 12 13 13 14 15 17 20 22 23 24 24 25 25 26 27 29 31 34 37 39 42 44 46 48 50 52 53 55 56 58 59 59 60 60 61 61 60 60 59 58 57 57 56 55 54 53 52 52 51 50 50 50 50 50 50 50 50 51 51 51 51 51 50 49 49 49 49 50 50
18 19 20 19 17 15 12 9 10 7 4 3 9 11 6 4 5 8 9 10 14 15 15 14 14 14 13 13 14 14 15 17 19 21 23 24 25 25 26 26 26 28 30 33 36 39 42 45 47 49 51 53 55 56 57 58 59 60 60 61 61 61 61 60 59 58 57 56 55 54 53 52 51 51 50 49 49 48 47 47 48 48 49 50 50 50 51 51 52 51 51 51 50 50 50 51 51
18 18 20 17 15 13 8 8 8 3 4 4 7 10 9 5 4 7 9 11 15 16 16 14 14 14 15 15 16 17 19 21 23 24 25 26 26 26 26 27 29 31 35 38 41 45 48 50 53 55 57 58 59 59 59 59 60 60 60 60 59 59 58 58 57 56 55 54 53 52 51 50 50 49 48 47 47 46 46 45 46 46 47 48 49 50 50 51 51 52 52 52 51 51 51 52 52
16 17 19 15 11 9 5 6 7 3 2 3 6 13 12 4 2 8 12 15 17 15 15 15 14 15 16 17 19 21 22 23 25 26 27 28 28 28 28 30 33 37 40 43 47 50 53 56 58 60 61 61 61 60 60 60 59 58 58 57 57 56 55 55 54 54 53 52 52 50 50 49 48 47 47 46 45 45 44 44 45 45 46 47 49 50 50 50 51 51 51 52 51 52 52 52 53
15 19 22 14 6 5 3 3 4 3 2 4 13 18 10 2 4 11 15 17 16 15 15 15 14 15 17 19 21 23 24 25 27 28 29 29 29 30 32 35 39 42 46 49 53 56 59 61 62 62 62 62 61 61 60 59 58 56 55 54 54 53 53 53 52 52 52 51 51 50 49 48 47 46 45 44 44 43 43 44 44 45 46 47 48 49 50 51 51 51 52 52 52 52 52 52 53
18 22 21 11 4 5 3 2 3 3 3 9 17 12 4 4 10 14 16 15 17 19 18 16 16 16 18 20 22 24 26 27 29 30 30 31 32 34 37 41 44 48 52 56 59 62 64 64 64 62 62 61 60 59 58 57 56 54 53 52 52 51 51 51 50 50 50 49 49 48 48 47 46 45 45 44 44 43 43 44 44 45 45 46 48 49 50 51 51 52 52 52 52 52 52 53 53
19 20 17 10 5 3 3 4 4 4 8 12 10 5 3 7 11 14 13 14 19 21 18 17 17 17 19 22 24 26 27 29 30 31 32 33 35 38 43 47 51 55 58 61 64 65 65 64 62 60 59 59 58 57 56 55 54 53 52 51 50 50 49 49 48 48 48 47 47 47 47 47 47 47 46 46 45 45 44 45 45 46 46 47 48 49 50 51 52 53 53 53 54 54 54 54 54
16 18 17 11 5 2 4 6 5 7 8 5 2 2 6 9 10 10 10 15 20 18 17 18 18 19 21 23 25 27 29 31 32 33 34 37 41 45 50 55 58 60 62 65 66 65 63 61 59 58 58 58 57 57 56 56 55 55 54 53 52 51 50 49 49 48 48 48 48 48 48 48 48 48 48 48 48 48 47 47 47 47 48 48 49 50 50 51 52 53 54 54 54 55 55 55 56
14 16 16 10 5 4 5 5 5 6 5 2 1 2 6 8 8 8 11 16 17 16 18 19 19 22 24 25 28 30 32 33 35 37 40 44 47 52 57 60 62 63 65 67 66 63 61 60 59 59 59 59 59 58 57 57 56 55 54 53 52 51 50 49 49 49 49 49 49 49 50 50 50 50 50 50 50 50 50 50 50 50 50 50 50 51 52 52 53 54 54 55 55 56 56 57 57
15 13 14 11 4 5 8 5 4 4 3 3 4 4 7 7 4 7 14 16 17 18 19 19 21 24 25 28 30 32 34 37 40 43 46 49 52 56 60 61 62 64 66 66 63 60 59 59 58 58 58 57 56 55 53 52 51 51 50 50 49 49 49 49 49 49 49 49 50 50 51 51 52 52 52 53 53 53 53 53 53 53 53 53 53 53 53 54 54 55 55 56 56 56 57 57 58
17 12 15 14 4 4 9 5 3 3 3 4 4 4 5 2 1 8 13 15 19 21 21 23 25 25 27 30 32 35 38 40 42 45 48 51 54 57 59 60 62 63 62 59 57 56 56 55 55 54 53 52 50 49 49 48 48 48 48 48 48 49 49 49 50 50 50 50 51 51 52 52 53 53 54 54 54 55 55 56 56 56 56 56 56 56 56 56 56 56 57 57 57 57 58 58 58
19 16 19 17 7 4 6 3 1 3 4 4 5 6 2 2 5 10 13 17 23 25 25 27 27 28 31 34 37 39 40 42 45 48 51 54 55 57 58 60 60 57 55 54 54 53 53 52 51 49 48 48 47 47 47 48 48 48 48 49 49 49 50 50 50 51 51 51 52 52 52 53 53 54 54 55 55 56 57 57 58 58 58 58 58 57 57 57 58 58 58 58 58 58 59 59 59
21 21 22 19 11 6 4 1 1 2 4 3 5 6 1 6 14 15 16 23 28 29 31 31 32 34 36 37 39 41 43 46 49 51 53 55 56 58 58 56 54 53 52 53 52 51 50 48 47 46 46 47 47 47 48 48 48 48 49 49 50 50 50 51 51 51 51 51 51 51 51 52 52 53 54 54 55 55 56 57 57 58 59 59 59 59 59 59 59 59 59 59 59 59 59 60 60
20 19 19 15 11 8 4 1 1 2 4 5 7 6 6 14 19 17 20 29 33 35 37 37 39 39 39 39 41 44 46 48 50 52 54 56 56 55 53 52 51 51 51 50 48 47 46 45 45 45 46 46 47 47 47 48 48 49 50 50 50 50 49 49 49 48 48 49 49 50 50 51 52 53 53 54 55 56 56 56 57 57 57 58 58 59 59 59 60 59 59 59 59 59 59 60 60
Wind_Direction
216 218 220 221 225 227 232 231 230 240 239 244 248 246 251 254 257 265 273 275 276 279 285 285 285 285 284 282 280 279 275 273 272 267 264 264 272 278 280 281 278 276 270 266 262 260 259 260 261 262 261 260 261 261 263 265 267 269 272 274 276 277 279 281 282 284 285 286 286 288 289 291 293 294 295 295 294 294 293 292 291 290 289 289 288 287 286 286 285 284 284 284 285 286 285 285 285
220 221 222 224 226 225 233 231 227 240 241 246 250 248 251 256 262 267 271 273 277 283 285 284 286 289 290 284 279 279 276 272 268 261 262 270 274 276 278 278 276 274 271 268 265 264 263 263 263 263 263 262 262 263 264 266 269 272 274 276 277 279 280 281 282 283 284 286 287 289 291 294 295 295 295 294 293 293 292 291 291 290 290 289 289 289 288 287 286 285 284 284 285 284 284 285 284
220 221 221 222 225 224 226 225 227 236 239 245 252 257 257 257 261 262 267 274 279 284 285 284 287 292 295 290 286 282 278 272 269 267 267 269 272 275 277 277 276 275 273 270 268 267 266 266 267 267 267 266 266 268 269 271 273 275 276 277 278 279 280 281 282 283 284 286 288 290 293 295 295 295 295 293 292 291 290 290 289 289 289 289 289 289 289 290 289 288 287 287 286 285 285 284 282
220 220 220 219 222 224 222 223 229 236 242 246 253 267 265 257 257 259 265 272 281 286 287 287 289 293 295 293 290 284 280 276 271 270 270 269 272 274 275 275 276 275 274 272 270 269 269 271 272 272 271 271 272 273 274 275 275 276 277 277 278 279 280 281 282 284 285 287 289 291 293 293 293 293 292 292 291 289 288 288 288 287 287 288 289 289 289 290 290 290 289 289 289 288 287 286 283
223 220 221 218 220 222 222 225 230 233 240 245 250 268 269 260 257 258 263 270 279 285 289 289 289 292 291 289 287 283 279 275 271 269 269 269 269 271 272 273 274 275 275 275 273 272 273 274 275 276 276 276 276 276 276 276 276 276 277 278 279 280 281 282 283 285 287 288 290 291 292 291 291 290 289 288 288 288 288 289 289 289 289 290 291 291 291 291 290 290 290 289 289 288 288 287 285
230 226 227 225 226 228 226 231 235 237 241 245 249 260 263 260 260 261 266 272 275 282 289 290 290 291 288 286 284 280 278 274 272 269 269 270 270 271 272 273 274 276 277 277 276 275 276 276 277 278 278 277 276 276 277 277 277 277 278 279 281 282 283 284 286 287 288 289 290 290 290 290 290 289 288 288 288 288 289 291 291 292 293 293 294 294 294 293 292 291 291 290 290 289 288 288 286
239 234 235 233 235 236 232 239 241 242 246 249 252 257 260 260 263 266 269 273 277 283 291 292 294 294 292 291 285 281 278 275 275 274 274 276 276 277 277 277 278 279 279 279 278 277 276 277 277 278 278 277 277 278 278 278 278 279 280 281 283 284 286 287 288 289 289 289 289 289 289 288 289 288 287 287 288 288 289 291 292 293 294 294 295 295 295 295 294 294 293 292 292 291 290 289 288
241 237 237 233 239 243 238 243 245 246 251 254 254 257 261 263 267 270 272 277 283 287 289 290 294 298 298 296 288 284 281 280 280 280 280 281 282 282 281 281 280 280 281 280 280 278 276 276 277 277 277 277 277 277 278 278 279 280 282 284 286 287 288 288 288 288 288 288 288 288 288 287 286 285 285 285 286 287 288 289 290 291 292 293 294 294 295 295 295 294 293 293 292 291 291 290 288
238 235 238 234 237 245 244 247 249 251 256 259 261 263 265 267 270 273 276 280 286 287 285 287 292 297 300 298 290 286 283 282 282 282 283 283 282 281 282 282 282 281 282 282 280 279 277 277 277 277 276 276 276 277 278 279 281 283 284 286 287 288 288 288 287 287 287 287 287 287 287 287 285 285 284 284 284 285 286 287 288 289 291 292 293 294 294 294 293 293 293 292 291 291 290 289 288
234 231 235 236 236 243 247 251 255 259 263 265 267 269 271 272 272 275 277 282 286 284 284 287 291 294 298 297 291 286 284 282 282 282 282 281 281 280 281 281 281 282 281 281 280 278 277 277 277 277 277 277 278 278 280 282 283 284 285 286 287 287 287 286 285 285 285 285 286 286 286 286 285 284 284 284 284 285 285 286 287 288 289 290 290 291 291 291 290 290 291 291 291 290 290 289 289
233 233 231 235 240 243 250 255 261 267 271 272 271 272 275 276 275 275 277 280 282 281 283 286 289 292 296 294 290 287 284 282 282 281 281 280 280 280 279 279 279 279 279 279 278 277 277 277 277 277 278 279 280 280 281 283 283 284 284 285 285 285 284 283 283 283 283 284 284 284 284 284 284 284 284 285 285 285 284 284 285 285 286 287 287 288 288 289 289 289 289 290 290 290 290 290 289
234 239 236 237 243 246 254 262 268 274 276 276 276 276 275 276 276 276 276 277 278 279 280 282 286 290 293 293 290 286 283 282 282 281 281 281 280 278 277 277 277 277 276 276 276 276 277 277 277 278 279 280 280 281 282 282 282 282 283 283 283 283 282 281 281 281 281 281 281 281 282 282 283 284 285 285 285 284 284 284 283 283 283 284 285 286 286 287 288 289 290 290 291 291 291 291 291
239 245 244 243 250 254 260 268 276 284 284 285 285 282 279 277 278 278 278 278 279 278 277 279 284 289 292 293 289 285 283 282 283 283 282 281 279 278 277 276 275 275 275 275 276 277 277 278 278 279 279 280 280 281 281 280 280 281 281 281 281 280 280 279 279 279 279 278 279 279 280 281 282 283 284 284 284 284 284 283 282 282 282 282 283 283 283 284 285 287 289 291 292 292 293 293 293
254 254 251 250 259 264 269 273 281 289 292 297 294 287 284 280 278 277 278 279 280 277 277 279 283 288 291 291 287 285 284 284 284 284 283 281 279 278 277 276 276 275 275 276 277 278 278 278 278 278 278 279 279 279 279 279 279 279 280 280 279 279 278 278 278 277 277 278 278 278 279 280 281 281 282 282 283 283 282 282 282 282 281 280 280 280 280 281 282 284 287 290 292 294 294 295 295
261 261 258 258 265 271 274 277 284 291 295 299 295 289 287 282 280 278 279 282 281 279 279 281 284 289 291 289 287 286 285 284 283 283 283 282 280 279 278 277 277 277 278 278 278 278 278 278 277 277 277 278 278 277 278 278 279 279 279 279 279 278 278 277 277 278 278 278 278 279 280 280 280 280 281 281 281 281 281 281 280 279 278 277 277 277 278 279 281 284 285 288 291 293 295 296 296
260 260 260 260 266 271 276 282 289 293 294 294 294 293 293 289 285 282 284 284 283 282 282 283 286 289 289 287 285 284 284 283 282 283 283 282 282 281 279 279 279 279 280 279 278 278 278 277 276 276 276 276 276 276 277 277 278 278 278 278 278 278 278 278 279 279 279 279 279 280 280 280 280 281 281 281 280 279 279 277 275 273 272 273 275 276 277 279 281 284 286 288 291 292 294 295 296
261 259 258 260 266 273 280 289 292 291 291 293 295 296 296 294 289 287 287 285 283 282 282 285 288 288 287 284 283 283 284 284 285 285 284 284 283 281 281 281 281 280 280 279 278 278 277 277 276 276 276 276 276 277 277 277 277 278 278 278 278 278 279 279 279 279 279 279 280 280 281 281 281 282 282 281 279 277 275 271 268 267 268 270 273 276 278 280 282 285 287 289 292 293 294 295 295
260 258 259 263 271 278 283 288 288 288 290 293 295 296 296 294 292 290 289 288 285 284 285 287 287 285 283 282 284 286 287 288 288 288 287 285 282 281 280 280 279 278 278 277 277 277 276 276 276 276 277 277 278 278 278 277 277 278 278 278 278 279 279 279 279 279 279 279 280 281 282 282 283 282 281 278 275 272 269 266 265 266 268 270 273 275 278 281 284 286 288 290 291 292 292 293 293
261 262 263 266 274 280 282 284 286 289 292 294 296 297 296 295 293 292 292 291 291 292 292 289 285 283 284 287 289 289 290 291 291 291 288 284 280 277 276 276 275 275 275 275 276 276 276 276 276 277 278 278 278 278 277 277 277 277 277 278 279 280 281 281 281 281 281 281 282 282 282 281 279 276 273 270 268 265 263 263 264 266 268 271 273 276 279 281 284 287 288 289 290 290 290 290 291
266 268 271 273 278 281 282 284 288 291 293 295 298 297 297 297 296 296 295 295 298 299 293 287 286 287 289 290 291 291 291 292 291 290 285 280 275 272 272 272 272 273 273 275 275 275 275 276 276 277 277 276 276 276 276 276 276 277 278 280 282 283 283 282 282 282 281 280 280 279 276 272 269 267 265 264 262 262 262 263 265 267 269 271 274 277 280 282 285 287 288 289 290 290 290 290 290
271 271 274 279 282 282 284 287 289 292 294 296 297 297 297 297 298 298 298 301 302 294 287 287 288 289 290 290 290 290 290 288 287 284 279 273 268 267 268 270 271 272 274 275 275 275 275 275 275 276 275 275 275 275 276 277 278 279 281 282 283 283 282 281 279 278 277 275 274 271 269 267 265 265 264 263 262 261 263 265 266 268 270 273 275 278 280 283 285 287 288 289 290 290 291 291 291
276 276 277 282 284 285 287 289 292 294 296 297 297 296 297 298 300 300 301 303 296 287 287 288 287 288 289 290 290 289 287 283 279 275 271 267 264 265 267 269 270 272 274 275 275 274 274 274 274 274 274 274 275 276 277 278 279 280 281 281 280 279 277 276 274 272 270 269 267 267 267 267 266 264 263 262 261 262 264 266 268 270 272 274 276 278 281 283 284 285 286 287 288 289 290 291 291
279 281 283 286 288 289 290 291 294 297 298 298 296 294 296 299 300 300 300 296 288 287 288 284 282 286 290 292 291 288 284 277 270 267 265 264 264 266 268 269 271 273 275 274 273 272 271 271 272 272 273 273 274 275 276 277 277 277 277 277 276 275 273 272 270 268 267 266 266 266 267 266 264 261 260 259 260 262 264 266 269 271 273 275 277 279 280 282 282 283 284 285 286 287 288 289 290
283 286 290 292 292 291 291 292 295 298 300 298 294 292 293 298 301 299 296 291 288 288 285 280 281 286 291 293 290 287 282 275 269 265 263 262 264 266 268 270 271 273 272 271 269 268 267 268 269 270 271 271 272 272 273 274 274 274 274 273 273 272 270 269 268 268 267 268 267 266 265 263 261 260 259 259 260 262 265 267 269 271 273 275 276 278 279 280 280 282 283 284 285 286 287 287 288
287 290 292 294 293 292 291 291 295 298 300 299 295 291 291 296 300 298 293 290 288 287 284 281 282 287 292 293 290 284 279 274 269 264 262 263 265 266 269 270 271 271 270 268 267 266 266 267 268 269 269 270 270 270 270 270 271 271 270 270 270 269 268 268 268 269 269 269 267 265 264 262 261 259 259 260 262 263 265 267 269 271 272 273 275 276 277 278 280 281 283 284 285 286 286 286 286
290 292 294 295 294 292 291 291 295 298 299 299 297 292 290 293 297 296 293 289 286 285 284 283 284 288 292 291 288 281 275 271 268 265 265 265 267 268 270 271 271 270 269 267 267 266 266 267 267 268 268 268 267 267 267 267 267 267 268 268 268 267 267 268 268 269 269 268 267 266 263 262 260 259 259 260 262 264 266 268 269 270 272 273 274 276 277 278 280 282 283 284 285 285 285 285 285
292 294 295 295 295 294 295 295 296 297 297 298 296 292 290 292 294 293 291 287 284 283 283 285 288 291 291 289 284 279 273 269 268 266 265 265 267 269 271 272 271 270 269 268 267 267 267 267 267 267 266 266 266 265 265 265 265 266 266 266 266 266 266 267 267 268 268 268 267 265 263 261 260 260 261 262 264 265 267 268 270 271 272 273 275 276 277 279 280 282 283 284 284 284 284 284 284
296 296 296 295 296 296 296 295 296 296 296 296 293 292 292 293 293 292 291 287 284 283 284 288 291 290 289 286 283 277 271 268 267 265 264 265 267 270 272 272 272 271 270 269 268 267 267 267 267 268 267 266 266 264 264 263 263 263 263 263 264 264 265 266 267 268 268 267 266 264 262 261 261 261 262 264 265 267 268 269 270 272 273 274 275 276 278 279 281 282 283 284 285 285 285 285 285
298 297 295 295 296 296 295 296 297 296 297 296 295 298 298 297 296 294 292 287 283 284 287 289 289 288 287 286 282 275 270 267 265 263 262 264 268 271 272 273 273 272 270 267 265 265 265 266 267 267 266 264 263 261 261 260 260 260 261 261 262 263 265 266 267 267 266 265 264 262 261 261 261 262 263 265 266 267 269 270 272 273 274 275 277 278 280 281 282 282 283 284 285 286 287 287 288
296 295 294 295 297 296 295 296 296 296 297 296 298 305 301 296 298 295 291 286 283 285 288 290 289 289 288 285 279 273 268 264 263 262 263 266 270 273 274 274 272 270 267 264 262 262 263 265 266 265 264 262 261 260 260 260 260 259 259 260 261 263 265 267 267 266 265 263 262 262 262 262 263 264 265 267 268 270 271 272 274 275 276 278 279 280 281 282 283 284 285 285 286 287 287 288 289
295 296 294 294 296 292 292 295 297 298 298 296 300 305 295 294 299 296 291 286 282 284 287 290 291 290 288 283 276 270 266 264 264 265 267 270 272 274 274 271 268 266 263 262 261 262 263 264 264 264 263 262 261 261 261 260 259 259 259 260 262 265 266 267 266 265 264 263 263 264 265 266 267 268 269 270 272 273 274 275 276 277 278 280 281 282 282 283 283 284 286 286 287 287 288 289 289
295 296 292 292 293 291 293 298 300 300 299 297 301 300 283 287 294 292 289 284 281 283 285 287 288 286 283 278 272 267 265 265 267 268 269 270 272 272 270 266 264 262 260 260 260 261 262 263 263 262 262 262 262 262 261 260 259 259 260 261 263 265 266 266 265 265 265 266 267 268 269 270 270 272 273 274 275 275 276 277 278 279 279 280 281 282 283 283 284 285 286 287 287 288 289 289 289
295 292 288 292 296 298 301 305 304 302 300 298 299 296 287 290 292 291 290 288 286 286 286 287 286 284 281 277 272 269 268 268 269 269 269 269 268 267 264 261 261 260 259 259 260 260 261 261 261 261 261 262 262 261 260 259 259 260 261 263 265 266 266 266 266 267 268 269 270 270 271 272 273 274 275 275 276 277 278 278 279 280 280 281 282 283 284 285 286 286 287 288 288 289 289 289 289
295 295 296 298 300 302 307 310 307 304 302 300 301 298 294 292 293 294 294 292 290 290 290 289 288 286 283 281 278 275 273 271 270 268 266 265 263 260 259 259 258 258 257 258 259 259 260 260 260 261 261 261 261 260 259 260 261 263 264 266 267 268 268 268 269 270 271 271 272 273 274 274 275 276 276 277 278 279 280 280 281 282 282 283 285 286 287 287 288 288 288 288 289 289 289 289 288
298 300 302 304 304 307 313 312 307 306 305 304 304 299 294 294 295 297 296 294 293 293 292 292 291 290 289 286 283 280 277 273 269 266 263 261 259 259 258 257 256 255 256 256 258 259 259 260 260 261 261 261 261 261 261 263 264 266 268 269 270 270 271 272 273 274 275 275 275 276 277 278 278 279 279 280 280 281 282 283 283 284 285 286 287 288 288 288 288 288 288 288 288 288 288 288 287
303 304 305 306 306 311 316 310 307 309 310 311 309 302 299 299 298 297 297 298 298 298 298 299 299 299 298 295 292 287 281 274 268 264 261 260 258 258 256 255 254 253 254 256 257 258 258 259 261 261 262 262 263 264 265 266 268 269 270 271 272 272 272 273 274 275 276 277 277 279 280 280 281 281 282 282 283 283 284 285 286 287 288 288 289 289 289 289 289 288 288 288 287 287 286 286 286
309 310 308 309 309 312 313 309 310 315 317 318 314 308 304 302 301 302 303 303 305 307 309 311 311 310 309 306 301 294 285 275 269 264 261 259 256 255 253 252 252 252 253 255 256 258 259 261 262 264 265 266 266 267 267 268 269 269 270 270 270 271 272 273 274 276 277 278 278 280 282 283 283 284 284 285 285 286 287 288 289 289 290 290 290 289 289 289 288 287 287 286 286 285 285 284 284
313 310 309 313 314 315 316 315 317 318 318 318 315 311 306 305 306 308 309 311 314 319 322 322 321 320 317 313 306 297 287 276 268 263 258 256 253 251 250 250 251 253 254 256 259 261 263 265 266 267 267 267 268 269 270 272 273 273 274 274 274 275 275 276 278 279 280 281 281 282 284 285 286 287 288 289 289 290 290 291 291 291 291 291 290 290 289 288 287 287 286 286 285 285 284 283 283
317 314 318 322 322 321 320 319 320 320 320 317 316 311 305 307 311 314 318 323 327 326 325 326 326 325 323 317 309 299 287 276 267 262 257 254 251 249 249 250 252 255 257 260 263 265 266 266 267 268 269 271 273 276 277 277 278 279 281 282 282 283 283 283 284 285 287 288 288 289 290 290 291 291 292 292 293 293 293 293 293 292 292 291 290 289 288 288 287 286 286 285 285 284 284 283 282
326 326 330 327 325 327 323 318 320 323 320 317 319 312 306 312 320 325 329 328 328 329 331 334 333 331 326 318 308 297 285 276 268 262 257 252 250 248 249 252 255 258 260 261 263 264 265 267 270 273 276 278 280 281 282 283 283 284 286 288 289 290 290 290 291 293 294 294 294 294 295 295 295 295 295 295 295 295 294 294 294 293 292 291 290 289 288 287 286 286 285 284 284 283 282 282 281
328 328 331 327 326 328 325 319 321 324 320 320 328 314 302 325 336 329 328 331 337 341 343 344 340 334 325 313 300 288 277 270 265 259 256 253 252 252 252 255 257 258 259 260 262 265 268 272 277 280 282 284 285 286 288 289 290 290 290 291 292 293 293 293 294 294 295 295 295 295 295 296 297 297 297 297 296 296 295 294 293 292 291 290 289 288 287 286 285 284 284 283 282 282 281 280 279
332 330 331 330 328 326 323 320 322 324 315 320 331 319 266 333 326 325 334 342 349 349 349 347 339 330 319 306 292 279 270 264 261 258 258 258 258 257 255 256 257 259 261 263 266 270 275 279 284 287 289 290 291 292 293 294 295 294 293 294 294 295 295 295 295 295 295 296 296 296 297 297 298 298 297 297 296 295 294 293 292 290 289 288 286 286 285 284 283 283 282 281 280 279 279 279 278
340 334 331 329 326 324 322 322 323 322 308 319 330 321 267 316 322 332 344 349 353 352 348 343 332 323 310 298 286 274 267 262 259 258 258 258 257 257 257 258 261 264 267 270 274 279 283 287 290 293 295 295 296 297 297 298 298 297 297 298 298 299 298 298 299 299 299 299 299 299 299 299 299 298 297 296 294 293 292 290 289 288 286 285 284 283 283 282 282 281 280 279 278 278 277 277 277
342 332 331 328 326 326 325 324 321 317 319 333 356 359 303 301 324 337 349 354 353 349 343 337 326 316 303 292 281 271 266 262 260 258 256 256 257 259 261 264 268 271 275 279 282 286 290 293 295 297 298 300 300 301 301 301 301 301 302 302 302 302 302 302 302 302 302 302 302 301 300 300 299 298 296 295 293 292 290 289 288 286 285 284 282 282 281 280 279 279 278 277 276 275 275 275 275
337 331 331 329 329 330 325 323 321 325 340 22 23 13 334 293 340 345 356 357 348 344 339 330 320 311 300 289 279 270 267 262 260 259 258 260 261 264 267 270 274 278 282 285 288 291 294 297 300 301 302 304 304 305 305 305 305 305 305 305 305 305 305 305 305 304 303 303 302 301 300 299 297 296 295 293 292 290 289 287 286 284 283 282 280 279 279 278 277 276 275 274 274 273 273 273 273
334 333 336 334 335 335 329 339 344 351 67 51 16 25 4 346 20 6 359 350 342 340 333 323 315 307 297 288 278 270 266 262 261 262 263 265 266 269 272 276 281 285 287 289 293 297 300 302 304 305 306 307 308 308 308 308 308 308 308 307 307 306 306 306 305 304 303 302 301 300 299 298 296 295 294 292 291 289 287 285 283 282 280 279 277 276 275 275 275 274 274 273 272 271 271 271 271
343 344 347 345 345 349 357 13 6 12 93 47 23 23 354 340 45 10 352 345 339 335 329 321 312 302 293 284 276 270 268 266 266 266 267 269 270 273 277 282 286 288 291 295 299 303 305 307 308 309 310 310 310 310 310 310 309 309 309 308 308 307 307 306 305 304 303 303 302 301 300 299 298 296 295 293 292 290 288 285 282 280 278 277 275 274 273 272 272 272 272 271 271 270 270 270 270
356 355 359 355 349 359 8 16 17 5 38 37 356 344 335 321 13 348 343 343 342 337 329 322 310 296 286 278 274 272 271 270 270 271 271 273 275 278 282 285 288 292 297 301 304 307 309 310 311 312 312 312 311 311 311 310 310 310 310 309 309 308 308 307 306 305 304 303 303 302 301 300 299 297 296 294 292 290 288 285 283 281 279 277 276 275 274 272 271 271 271 271 271 271 271 271 270
2 5 9 7 353 358 352 8 16 342 0 347 327 328 328 320 323 330 337 344 351 350 338 328 311 294 284 279 277 274 273 273 273 274 274 276 279 282 286 290 294 298 302 305 308 309 311 312 313 313 313 312 312 312 311 311 311 312 312 311 311 310 309 308 307 307 306 305 304 303 302 300 299 297 295 293 292 289 287 285 283 281 279 277 276 275 274 273 272 272 271 270 270 271 271 271 271
10 13 16 17 7 355 352 357 340 319 319 318 323 330 340 329 321 328 339 348 354 352 343 333 319 303 293 287 284 280 278 277 276 276 276 278 282 286 292 297 300 303 306 309 311 312 313 314 314 314 313 313 313 313 313 313 313 313 313 312 311 310 309 308 308 307 306 305 304 303 302 300 299 297 295 293 291 289 287 284 282 280 278 277 275 275 274 273 273 272 272 271 271 270 270 271 271
12 15 23 31 37 11 338 343 331 313 309 312 330 0 335 318 317 325 339 346 347 347 343 336 324 310 301 294 288 285 282 279 277 276 278 281 286 292 298 303 306 308 310 312 314 314 315 315 315 315 315 315 315 315 315 315 315 315 314 313 312 311 310 309 308 307 306 305 304 303 302 300 299 297 296 294 292 290 288 285 283 281 279 278 276 275 274 274 273 273 273 272 272 271 271 271 271
6 12 22 25 34 30 315 312 308 303 301 304 29 8 314 318 320 321 336 345 345 346 342 335 323 312 305 299 294 289 283 280 278 279 283 288 293 299 305 308 310 312 313 315 316 316 316 316 316 317 316 316 316 317 317 316 316 315 314 313 312 312 311 310 309 308 307 306 305 303 302 301 300 298 297 295 294 292 290 288 286 284 282 281 279 277 276 275 274 274 273 273 272 272 272 271 271
9 16 21 10 10 25 339 301 300 310 298 288 26 331 316 325 325 324 337 345 348 348 342 333 324 318 310 304 298 290 284 282 283 286 291 296 300 305 309 311 312 313 315 317 317 317 317 316 316 315 315 314 314 314 314 314 313 313 312 312 312 311 311 310 309 308 307 306 305 304 303 301 300 299 297 296 295 293 291 290 288 286 285 283 281 280 279 277 276 275 274 274 273 272 272 271 271
22 28 20 8 10 17 360 329 306 327 310 303 320 322 319 321 331 338 340 345 349 346 340 332 326 321 313 307 300 294 291 290 291 293 296 300 304 307 308 310 311 314 315 315 314 313 313 312 311 311 311 311 311 312 312 312 312 312 312 312 311 311 310 310 309 308 307 306 305 304 302 301 300 299 297 296 295 293 292 291 289 288 286 285 284 282 281 280 278 277 276 275 275 274 273 272 271
24 25 13 15 26 335 348 343 315 340 327 307 310 320 319 290 316 338 339 343 344 342 338 331 325 319 313 309 305 301 300 296 296 299 302 304 305 307 308 309 311 311 311 310 309 308 308 308 308 309 310 312 312 313 313 313 313 312 312 312 311 311 310 310 309 307 306 305 304 302 301 300 299 298 297 295 294 293 292 291 289 288 287 285 284 283 282 281 280 279 278 277 276 275 274 273 273
10 8 7 18 31 349 350 4 337 323 317 312 311 321 330 199 287 317 327 333 337 337 334 329 323 317 313 310 308 306 302 300 301 304 306 306 306 307 308 309 310 309 308 308 308 308 308 310 311 313 314 315 315 314 314 313 313 313 313 312 312 311 310 309 308 307 306 305 304 303 302 301 300 299 298 296 295 294 292 291 290 288 287 286 285 283 282 281 280 279 278 278 277 276 275 274 273
5 2 3 14 30 27 8 40 85 308 317 324 308 313 276 273 298 308 321 329 333 334 330 325 320 316 313 310 308 306 304 304 306 306 307 307 308 309 310 310 310 309 309 309 309 310 312 314 315 316 316 315 314 314 314 314 314 313 313 313 312 311 311 310 309 309 309 308 307 306 305 304 303 302 301 300 298 297 295 293 292 290 289 287 286 285 283 282 280 279 279 278 277 276 275 274 273
5 2 3 15 33 33 16 18 73 306 306 294 288 299 288 291 300 306 319 327 328 326 323 319 316 314 311 309 308 307 308 308 308 308 308 309 309 310 310 311 310 309 309 309 311 313 315 316 316 315 314 313 313 313 313 313 313 313 313 312 312 312 312 312 312 312 312 311 311 310 309 307 306 305 304 303 301 299 298 296 294 293 291 290 288 287 285 284 282 281 280 279 278 277 276 275 274